User: anonymous   Login
Location: Unspecified
(0.0000°N, 0.0000°E)
Time: 04:11:23
(UTC+00:00)
Language:

AO-91 - Orbit

View from above orbital plane
View from above orbital plane
View from above satellite
View from above satellite

Ground track
Ground track

The orbit data is extracted from the following two-line orbital elements,

1 43017U 17073E   18293.51335505 +.00000359 +00000-0 +34136-4 0  9991
2 43017 097.7111 219.4501 0258122 223.4204 134.6421 14.78245567049623
Epoch (UTC): 20 October 2018 12:19:13
Eccentricity: 0.0258122
inclination: 97.7111°
perigee height: 454 km
apogee height: 816 km
right ascension of ascending node: 219.4501°
argument of perigee: 223.4204°
revolutions per day: 14.78245567
mean anomaly at epoch: 134.6421°
orbit number at epoch: 4962

The dashed part of the orbit path shows where the satellite is in the earth's shadow,  

DLR